Regional Weather Roundup
Issued by NWS

Home | Current Version | Previous Version | Graphics & Text | Print | Product List | Glossary On
Versions: 1 2 3 4 5 6 7 8 9 10 11 12 13 14 15 16 17 18 19 20 21 22 23 24 25 26 27 28 29 30 31 32 33 34 35 36 37 38 39 40 41 42 43 44 45 46 47 48 49 50
000
ASUS43 KMKX 261700
RWRWI

WISCONSIN REGIONAL WEATHER ROUNDUP
NATIONAL WEATHER SERVICE MILWAUKEE/SULLIVAN WI
1100 AM CST SUN FEB 26 2017

NOTE: "FAIR" INDICATES FEW OR NO CLOUDS BELOW 12,000 FEET WITH NO
SIGNIFICANT WEATHER AND/OR OBSTRUCTIONS TO VISIBILITY.

WIZ001-002-006>008-014>016-023>028-261800-
NORTHWEST WISCONSIN

CITY           SKY/WX    TMP DP  RH WIND       PRES   REMARKS
SUPERIOR ARPT  LGT SNOW  24  20  84 N16G24    29.70R WCI  11
ASHLAND        LGT SNOW  29  24  82 SW14      29.67S WCI  18
HAYWARD        CLOUDY    28  21  75 SW9G18    29.69R WCI  19
SIREN          CLOUDY    31  22  68 W13G18    29.72R WCI  21
CUMBERLAND     MOSUNNY   32  21  64 W12G20    29.71S WCI  23
RICE LAKE      MOSUNNY   30  22  72 S10       29.74S WCI  21
CHETEK         PTSUNNY   29  21  71 SW6       29.74S WCI  23
LADYSMITH      CLOUDY    29  22  74 SW12      29.73S WCI  20
EAU CLAIRE     NOT AVBL
MENOMONIE      CLOUDY    30  21  68 SW6       29.77F WCI  24
NEW RICHMOND   SUNNY     33  22  63 SW14G20   29.75S WCI  24
OSCEOLA        CLOUDY    32  24  70 W12G17    29.78R WCI  23
$$

WIZ003>005-009-010-017-018-261800-
NORTH CENTRAL WISCONSIN

CITY           SKY/WX    TMP DP  RH WIND       PRES   REMARKS
MANITOWISH WTR LGT SNOW  24  21  90 SW10      29.65S WCI  13
ARBOR VITAE    CLOUDY    26  20  79 SW8G17      N/A  WCI  17
WOODRUFF       CLOUDY    26  20  79 SW8G17      N/A  WCI  17
RHINELANDER    CLOUDY    27  19  72 SW13G21   29.69S WCI  16
EAGLE RIVER    CLOUDY    24  18  75 SW10G20   29.66F WCI  14
LAND O LAKES   CLOUDY    25  20  82 SW8       29.66F WCI  16
PHILLIPS       CLOUDY    26  20  77 SW7       29.68S WCI  18
TOMAHAWK       CLOUDY    27  19  72 W7        29.71S WCI  20
MEDFORD        PTSUNNY   27  18  69 W10       29.71S WCI  17
MERRILL        NOT AVBL
$$

WIZ029-030-035-036-043>047-261800-
CENTRAL WISCONSIN

CITY           SKY/WX    TMP DP  RH WIND       PRES   REMARKS
WAUSAU         MOSUNNY   29  18  63 SW13      29.73S WCI  19
MOSINEE        MOSUNNY   30  21  69 SW15G21   29.76R WCI  19
MARSHFIELD     SUNNY     30  19  63 SW14      29.74R WCI  19
STEVENS POINT  MOSUNNY   30  18  62 SW13G18   29.77R WCI  20
WAUPACA        SUNNY     35  21  56 SW9G16    29.80S WCI  28
WAUTOMA        SUNNY     35  21  56 SW14      29.80S WCI  26
WISC RAPIDS    SUNNY     33  21  61 SW15      29.79R WCI  23
CAMP DOUGLAS   NOT AVBL
$$

WIZ011>013-019>022-031-037>040-048>050-261800-
NORTHEAST WISCONSIN

CITY           SKY/WX    TMP DP  RH WIND       PRES   REMARKS
ANTIGO         PTSUNNY   27  19  70 W16G22    29.72S WCI  15
SHAWANO        PTSUNNY   34  21  59 SW10G16   29.78S WCI  26
OCONTO         PTSUNNY   32  19  60 SW12G20   29.79S WCI  23
STURGEON BAY   PTSUNNY   32  22  66 SW18G26   29.78F WCI  20
GREEN BAY      SUNNY     32  24  72 SW15      29.80S WCI  22
MANITOWOC      NOT AVBL
APPLETON       MOSUNNY   32  19  59 SW18      29.78S WCI  20
CLINTONVILLE   PTSUNNY   32  19  59 SW16      29.78S WCI  21
OSHKOSH        SUNNY     32  21  64 SW17G25   29.80F WCI  21
$$

WIZ032>034-041-042-053>061-261800-
SOUTHWEST WISCONSIN

CITY           SKY/WX    TMP DP  RH WIND       PRES   REMARKS
LA CROSSE      SUNNY     38  22  52 CALM      29.83R
SPARTA         SUNNY     36  23  59 SW7G17    29.82R WCI  30
VIROQUA        SUNNY     33  23  66 SW13      29.82R WCI  24
BOSCOBEL       SUNNY     37  23  56 SW12      29.88R WCI  29
PRAIRIE DU CHI SUNNY     35  23  62 SW8       29.88R WCI  28
PLATTEVILLE    SUNNY     34  27  73 SW18G28   29.89R WCI  23
$$

WIZ056-057-062-063-064-067-068-261800-
SOUTH CENTRAL WISCONSIN

CITY           SKY/WX    TMP DP  RH WIND       PRES   REMARKS
REEDSBURG      SUNNY     34  22  62 SW13G18   29.84R WCI  25
BARABOO/DELLS  SUNNY     33  21  62 SW14G21   29.81R WCI  23
LONE ROCK      NOT AVBL
MINERAL POINT  SUNNY     34  28  80 SW10      29.85S WCI  26
MADISON        MOSUNNY   35  23  61 SW10G18   29.85S WCI  27
MIDDLETON      MOSUNNY   35  25  66 SW12      29.85S WCI  27
WATERTOWN      MOSUNNY   34  23  63 SW20G28   29.86S WCI  22
MONROE         SUNNY     36  23  60 SW21G30   29.87S WCI  24
JANESVILLE     MOSUNNY   37  25  60 SW21G28   29.89S WCI  27
$$

WIZ051-052-058>065-066-070>072-261800-
SOUTHEAST WISCONSIN

CITY           SKY/WX    TMP DP  RH WIND       PRES   REMARKS
MILWAUKEE      MOSUNNY   38  20  48 SW26G37   29.88F WCI  26
WAUKESHA       SUNNY     34  18  51 SW15G35   29.88F WCI  24
MILWAUKEE/TIMM SUNNY     36  18  48 SW21G31   29.88F WCI  24
RACINE         MOSUNNY   38  19  46 SW20G35   29.90F WCI  28
KENOSHA        MOSUNNY   38  20  48 SW25G37   29.91S WCI  27
FOND DU LAC    LGT RAIN  34  20  56 SW15G28   29.82S WCI  24
SHEBOYGAN      CLOUDY    33  21  61 SW15      29.83F WCI  23
WEST BEND      MOSUNNY   32  23  69 SW16      29.84S WCI  21
JUNEAU         PTSUNNY   32  22  67 SW15      29.86S WCI  22
$$

LSZ147-162-261800-
LAKE SUPERIOR

STATION/POSITION TIME  TEMP    WIND        PRES    WAVE
                       AIR SEA DIR/SP/G            HT/PER
                 (UTC) (F)     (DEG/KT/KT) (MB)    (FT/S)
DEVILS ISLAND    1600   28     220/ 16/ 20 1004.8F
PORT WING        1640   28     220/  9/ 14 1005.1R
SAXON HARBOR     1630   29     200/  9/ 16 1004.7F
$$

LMZ867-665-643>646-261800-
LAKE MICHIGAN

STATION/POSITION TIME  TEMP    WIND        PRES    WAVE
                       AIR SEA DIR/SP/G            HT/PER
                 (UTC) (F)     (DEG/KT/KT) (MB)    (FT/S)
NORTHPORT PIER   1521   29      CALM  /  2 1009.1F
SISTER BAY       1550   34        CALM       N/A
KEWAUNEE LAKESHO 1630   30     210/ 15/ 19 1009.5F
SHEBOYGAN LAKESH 1600   31     210/ 14/ 16 1011.7F
PORT WASHINGTON  1640   38     210/ 13/ 27 1012.2F
MILWAUKEE LAKESH 1630   36     220/ 23/ 26   N/A
KENOSHA   LAKESH 1600   35     210/ 16/ 26 1013.2
$$

TC  - TEMPERATURE IN CELSIUS
VSB - VISIBILITY IN STATUTE MILES
WCI - WIND CHILL INDEX
HX  - HEAT INDEX





USA.gov is the U.S. government's official web portal to all federal, state and local government web resources and services.